Wind_Speed
14 23 26 25 23 22 22 21 23 23 27 30 31 32 33 32 26 24 26 22 24 26 28 29 27 25 28 28 30 29 28 30 28 26 25 23 23 24 24 26 25 23 24
24 25 28 27 25 23 22 21 23 25 27 29 31 32 31 28 26 26 25 25 26 26 29 29 27 28 28 28 28 32 30 28 27 26 26 24 23 24 23 23 22 21 22
22 23 27 27 26 24 22 22 23 24 26 28 32 31 28 24 25 26 24 25 28 29 29 27 26 29 29 31 33 32 31 29 27 27 25 21 20 21 21 21 22 22 22
17 17 18 23 24 24 22 21 22 22 24 27 29 29 24 24 27 26 23 24 28 29 27 25 27 28 33 34 32 31 30 29 28 24 20 18 17 17 19 21 21 21 20
17 15 16 22 21 22 22 22 21 20 22 25 27 27 24 28 29 25 26 25 28 27 26 26 27 29 32 33 32 31 28 25 24 21 19 18 18 20 21 18 16 15 15
17 16 18 20 20 20 21 20 20 20 21 24 25 24 29 28 29 26 27 27 29 26 26 27 29 32 32 33 31 27 24 25 22 19 17 17 17 17 17 15 13 16 18
18 18 18 17 17 18 19 20 19 19 20 21 24 24 29 31 29 27 26 26 27 26 26 28 30 32 32 32 29 27 27 24 18 18 15 15 15 15 13 15 19 19 19
11 12 13 16 15 15 17 18 19 19 19 21 23 23 27 27 27 24 20 23 26 26 27 26 30 32 31 29 25 26 25 22 18 17 16 15 14 16 18 18 18 19 19
8 2 9 9 11 12 14 16 18 19 20 21 23 23 26 27 29 29 25 20 25 26 26 29 32 31 29 27 26 25 23 21 17 17 16 15 16 16 16 17 18 19 19
13 6 3 4 5 8 10 14 16 18 19 20 20 22 25 29 30 28 22 22 25 26 27 30 32 30 28 27 25 23 22 20 16 16 14 15 16 17 18 18 18 18 19
15 14 12 8 9 12 14 12 14 17 18 18 18 20 28 30 31 28 27 23 26 27 30 32 32 30 28 25 23 22 21 15 15 14 14 17 17 17 17 18 18 18 18
26 19 14 11 13 13 13 16 15 15 16 17 16 19 29 32 33 30 28 23 25 28 32 33 32 31 27 22 20 21 14 16 13 14 15 18 17 17 17 17 17 17 17
23 22 18 14 10 14 12 12 15 15 15 17 17 20 29 32 32 28 28 25 26 31 31 30 32 26 22 21 19 15 16 15 13 14 17 18 17 17 16 17 16 16 16
29 26 25 20 15 11 16 16 18 17 17 17 18 20 27 29 32 34 29 29 31 35 30 30 28 22 20 19 19 17 16 14 13 14 16 18 17 16 16 16 16 16 16
30 29 29 24 21 16 16 20 19 21 20 19 21 22 28 29 29 33 25 32 31 33 34 30 22 22 23 20 20 18 16 14 14 14 15 17 17 17 16 15 15 15 15
31 31 29 25 23 18 16 21 23 24 24 23 26 27 29 31 33 35 31 31 32 33 31 29 24 26 26 24 20 17 15 14 14 15 15 16 17 16 15 15 15 15 14
29 30 29 27 25 19 18 17 27 26 25 27 27 29 30 32 36 37 35 34 36 36 32 28 28 29 30 23 19 17 15 14 14 14 15 15 16 16 16 15 14 14 14
30 31 29 28 26 23 18 14 26 27 27 28 28 29 31 32 37 37 34 36 35 39 35 32 33 32 29 27 20 17 15 14 14 14 13 14 15 15 15 15 14 14 13
29 29 29 30 28 27 19 15 15 28 29 31 29 33 33 33 34 34 38 38 41 40 39 34 33 34 32 24 19 18 16 14 15 14 13 14 14 14 14 16 15 15 14
28 29 28 30 30 28 25 19 8 26 28 31 31 31 33 35 34 31 38 40 40 39 38 33 33 37 37 33 19 16 16 14 13 13 14 13 14 14 14 14 14 13 15
31 32 31 32 34 31 33 29 22 16 19 25 32 32 36 34 37 38 27 35 43 38 40 36 32 35 28 32 24 15 11 13 11 12 13 13 14 14 14 14 14 13 14
31 32 31 30 31 29 29 27 19 25 16 26 27 31 32 36 36 37 35 35 46 37 39 42 24 31 26 34 16 13 3 4 10 12 13 14 14 14 15 15 15 15 14
32 32 31 30 29 28 32 29 26 16 12 20 27 30 33 33 30 36 37 32 38 40 38 44 37 38 31 33 25 10 4 4 11 13 17 16 16 16 16 16 16 16 15
32 30 30 30 28 29 31 28 27 18 18 14 19 29 28 32 36 42 37 35 36 37 36 34 49 28 34 30 29 15 14 13 5 4 12 19 19 19 19 18 17 18 17
32 33 30 31 28 29 30 29 26 21 20 21 18 23 30 32 37 39 39 38 36 35 35 41 39 30 32 28 27 15 9 10 8 4 4 10 17 21 21 22 20 19 20
32 33 33 33 30 30 30 29 27 26 25 24 19 10 26 27 29 34 42 44 37 35 31 37 39 31 30 31 28 26 20 14 9 5 2 6 12 18 23 22 23 22 20
Wind_Direction
188 175 174 176 176 175 175 170 172 174 170 169 168 165 161 157 156 153 148 148 145 144 142 140 133 125 123 128 126 122 118 113 110 112 108 106 104 104 104 99 95 95 94
169 172 174 174 175 175 174 172 173 174 175 174 172 169 166 162 156 153 147 146 144 145 142 139 135 128 126 127 122 118 117 118 116 113 113 108 105 104 103 102 99 99 96
164 168 172 175 177 176 174 175 174 175 180 180 178 173 170 170 164 156 151 153 150 146 142 138 133 129 130 128 123 123 126 122 120 117 109 110 105 102 102 102 100 100 97
161 164 168 177 180 178 175 176 178 180 184 185 184 182 179 175 165 159 157 155 151 149 143 136 132 130 134 132 130 130 126 122 118 109 111 112 109 107 108 106 100 99 98
154 163 168 178 183 183 178 179 178 180 186 187 183 182 179 169 168 162 157 156 154 150 143 139 137 137 141 136 134 130 128 127 122 110 113 114 115 110 108 106 103 104 105
159 166 173 180 186 187 186 183 182 185 189 188 187 189 181 174 171 164 160 160 157 152 147 142 140 146 141 137 135 136 136 132 117 119 115 118 113 113 111 113 126 116 114
161 170 175 185 189 190 193 192 190 193 194 192 189 188 183 177 171 163 159 158 153 152 152 148 148 148 144 142 143 144 141 132 126 127 126 129 127 124 127 125 116 114 116
145 165 176 185 193 197 200 202 201 200 200 198 192 190 183 178 164 159 166 164 156 157 155 154 152 151 149 149 150 147 145 136 125 125 125 124 135 127 122 121 119 118 119
37 152 182 189 200 207 211 212 211 209 207 205 201 195 183 178 171 163 167 175 166 164 161 159 156 154 152 152 150 148 148 137 128 128 123 127 131 126 124 125 123 121 120
25 11 293 249 227 220 223 224 221 218 215 213 211 199 184 179 170 165 173 181 176 169 167 163 158 157 156 153 150 149 148 136 130 128 127 130 128 128 126 125 128 126 126
19 10 335 304 261 232 223 226 235 228 223 217 212 203 183 180 176 179 179 184 182 172 171 166 160 159 155 152 153 151 142 137 134 130 130 133 132 132 132 132 133 130 130
1 356 359 324 293 266 243 224 225 225 224 220 210 202 186 184 182 184 186 188 188 173 173 167 164 162 151 149 155 152 143 143 137 134 135 137 136 136 136 137 136 133 133
347 347 344 338 308 279 258 248 231 225 223 222 209 188 188 188 187 186 190 184 183 175 168 168 167 159 159 157 159 159 149 141 139 135 143 140 140 140 142 141 138 136 136
352 349 345 337 325 293 262 252 245 232 219 214 215 200 192 187 187 183 189 188 177 173 170 169 166 169 166 162 161 156 152 146 143 139 146 144 145 146 147 146 143 143 142
354 350 348 343 335 318 282 250 247 241 228 213 211 205 202 192 190 182 184 178 169 173 173 169 169 169 171 164 160 160 155 149 145 142 147 150 151 150 152 151 149 147 146
352 351 348 345 337 323 302 257 249 242 234 223 213 211 208 195 186 186 187 178 178 182 175 175 173 176 175 169 162 163 157 152 149 146 147 154 155 155 157 156 156 154 152
354 349 351 349 344 337 333 271 251 248 236 226 221 213 212 204 193 188 176 175 183 183 179 178 183 182 178 170 164 165 160 155 153 151 150 155 159 162 163 163 163 161 159
354 354 350 350 350 348 336 306 251 246 236 225 221 216 209 200 195 190 180 180 188 189 186 184 190 185 181 173 166 167 163 160 155 154 156 158 162 166 169 169 169 168 165
354 354 354 353 353 350 349 332 267 238 239 231 220 221 218 207 204 199 200 188 189 193 198 190 189 192 180 171 171 167 166 165 160 159 165 168 169 168 172 177 178 178 175
355 356 357 356 355 353 355 344 330 239 238 228 227 217 223 217 205 199 195 191 185 188 189 189 186 187 184 179 165 164 168 162 169 168 171 175 180 179 177 176 181 189 187
358 357 358 358 355 356 356 353 338 322 248 225 225 217 227 216 213 214 194 190 191 190 193 193 180 181 172 173 143 138 158 180 179 177 180 185 186 188 189 187 183 188 197
357 357 356 355 356 356 351 344 328 308 291 226 226 224 225 228 219 208 199 192 195 201 197 204 192 179 174 169 163 134 136 166 210 200 192 195 193 196 199 197 197 196 195
359 357 355 354 354 354 353 349 344 335 355 218 217 225 225 221 203 194 196 199 203 197 196 200 200 185 169 177 176 148 156 175 159 203 207 206 201 203 207 206 206 206 205
358 357 357 355 354 354 355 352 346 338 329 321 251 218 218 220 211 201 200 203 197 199 195 194 204 189 168 174 179 190 170 149 184 170 212 215 212 211 212 212 213 213 212
3 1 359 358 357 355 353 354 346 334 334 320 324 214 214 215 215 212 204 194 196 200 202 202 198 179 178 174 178 172 163 168 161 157 170 198 216 221 219 221 216 217 217
4 4 1 0 358 356 354 352 348 342 341 331 326 297 214 212 209 204 202 199 195 198 199 204 207 210 192 189 192 194 185 188 184 173 157 180 210 221 219 221 219 219 220
Height
752 755 759 763 766 769 773 776 778 781 784 787 791 794 797 799 802 805 807 809 812 814 816 819 821 822 824 828 829 830 834 837 839 841 843 845 847 847 848 850 851 852 852
749 754 759 762 766 770 774 777 781 783 786 789 792 795 798 800 804 807 808 810 813 815 818 820 822 825 827 828 830 833 837 839 842 843 845 848 850 850 851 853 854 855 855
754 757 761 764 767 771 774 778 782 785 788 791 794 797 799 802 805 808 810 812 814 817 820 822 824 825 828 830 833 836 839 840 843 846 848 851 852 853 854 855 856 857 858
760 765 766 769 772 773 777 780 784 787 790 792 795 797 800 803 806 809 811 814 817 819 822 824 826 828 830 832 834 838 841 843 845 848 851 853 855 856 856 857 858 859 860
763 767 769 772 775 777 778 781 785 788 790 793 795 799 800 804 807 809 812 816 819 822 823 825 828 830 832 834 837 840 843 845 847 850 853 855 856 857 858 859 860 861 862
763 768 770 773 776 779 781 783 786 789 792 794 796 798 801 804 807 809 813 817 819 823 826 827 829 832 834 836 840 843 844 847 849 852 855 856 858 859 859 860 862 863 865
762 766 771 776 778 781 783 785 787 790 792 795 797 798 801 805 807 811 814 818 821 823 827 828 830 833 835 839 841 843 846 848 851 854 855 857 859 860 860 862 864 865 867
770 773 775 777 781 783 785 786 788 790 792 795 798 800 803 806 808 812 816 820 822 824 827 829 832 835 838 841 843 845 847 850 853 855 857 859 860 861 862 864 865 867 868
779 780 780 782 783 784 786 788 789 791 792 795 797 801 804 807 808 813 816 822 824 826 828 831 834 837 840 842 844 846 849 852 854 856 858 860 861 863 864 865 867 869 871
782 786 788 787 787 788 789 789 790 792 793 795 798 801 804 806 810 812 816 819 825 827 829 832 835 839 842 844 846 848 851 853 856 858 860 862 863 864 865 867 869 870 872
784 789 791 790 789 788 789 790 792 793 794 797 799 801 803 806 810 812 816 818 824 827 830 834 836 840 843 847 849 850 853 855 858 859 861 862 864 866 867 869 870 872 874
788 789 791 791 791 791 790 789 790 792 794 795 799 801 803 806 809 811 816 818 823 827 832 835 837 841 845 848 852 853 855 856 858 860 862 863 865 867 869 871 872 874 875
799 794 791 790 789 790 791 790 789 790 792 795 798 799 802 805 809 809 815 818 824 828 834 837 839 843 845 847 852 854 855 857 859 861 862 864 866 868 870 872 874 875 877
799 795 792 789 788 788 789 789 790 790 789 792 796 799 800 804 807 805 811 816 820 827 832 835 839 842 845 847 849 853 856 857 859 861 863 865 867 870 872 874 875 876 878
804 798 794 790 788 786 786 787 788 789 789 790 792 797 799 801 805 806 811 814 818 824 829 833 838 841 843 847 849 853 855 857 859 861 864 866 868 870 873 875 877 878 880
808 802 796 792 788 785 783 784 785 787 788 789 789 793 797 798 803 804 809 812 818 823 827 832 835 838 842 846 849 853 855 857 859 861 864 867 869 872 874 877 879 880 882
813 805 800 795 789 784 782 782 781 783 785 786 789 789 793 796 799 800 805 810 816 822 825 830 834 838 841 846 850 853 856 857 859 861 864 867 869 872 875 877 880 881 883
815 808 802 797 790 784 781 779 778 778 781 783 786 789 791 793 796 799 802 807 814 818 822 827 831 836 841 845 849 853 855 858 859 861 864 867 870 873 875 877 880 882 883
817 811 804 798 791 784 779 776 774 774 778 780 782 784 789 790 793 797 801 802 809 813 820 824 828 832 838 844 848 851 854 857 858 860 864 867 870 872 875 877 879 881 883
818 812 806 799 793 786 780 775 772 773 774 776 779 780 784 788 790 793 793 799 806 810 814 820 823 827 834 838 846 850 853 855 858 860 863 866 869 871 873 875 878 880 882
818 811 806 800 794 788 781 777 773 771 771 771 774 776 779 782 785 790 791 789 801 804 808 816 817 822 829 835 843 850 852 855 858 859 862 865 867 869 871 873 875 878 880
821 815 809 805 799 793 788 783 780 773 767 767 770 773 775 779 780 784 786 790 793 801 805 812 812 818 824 830 835 844 851 857 857 857 860 863 864 866 868 870 872 874 876
824 818 812 808 802 796 790 783 777 770 764 764 765 768 770 774 774 777 781 782 790 794 798 802 809 811 814 824 828 833 843 845 851 854 856 859 860 862 865 867 869 870 872
828 822 816 809 803 797 791 785 781 777 771 764 762 762 765 768 770 771 775 780 783 790 794 797 804 804 806 814 824 827 829 833 839 848 852 854 856 858 860 863 864 866 868
830 823 817 811 804 798 792 787 782 777 771 764 759 758 760 763 766 769 770 774 779 786 790 795 800 798 803 810 816 822 826 830 833 834 841 848 852 852 854 857 859 861 862
832 824 817 811 805 799 793 788 783 777 770 766 759 757 757 759 761 763 765 764 774 783 786 789 795 799 802 806 813 817 820 823 827 831 835 841 844 846 848 851 852 854 856